Location: Unspecified
(40.0333°N, 0.0000°E)
Time: 11:57:35
(UTC+00:00)

CZ-8A R/B - Visible Passes

Search period start: 04 April 2026 00:00
Search period end: 14 April 2026 00:00
Orbit: 705 x 874 km, 50.0° (Epoch: 29 March)

Date Brightness Start Highest point End Pass type
(mag) Time Alt. Az. Time Alt. Az. Time Alt. Az.
4 Apr ? 20:25:31 10° NW 20:30:53 34° N 20:33:22 24° NE visible
4 Apr ? 22:11:05 10° NW 22:14:01 30° NW 22:14:01 30° NW visible
5 Apr ? 19:53:01 10° NW 19:58:21 33° N 20:02:21 15° ENE visible
5 Apr ? 21:38:40 10° NW 21:43:00 47° NNW 21:43:00 47° NNW visible
6 Apr ? 19:20:30 10° WNW 19:25:48 32° N 19:30:59 10° ENE visible
6 Apr ? 21:06:13 10° NW 21:11:59 58° NNE 21:11:59 58° NNE visible
6 Apr ? 22:51:55 10° WNW 22:52:38 13° WNW 22:52:38 13° WNW visible
7 Apr ? 18:47:58 10° WNW 18:53:14 31° N 18:58:25 10° ENE visible
7 Apr ? 20:33:48 10° NW 20:39:36 53° NNE 20:41:00 43° ENE visible
7 Apr ? 22:19:23 10° WNW 22:21:39 23° WNW 22:21:39 23° WNW visible
8 Apr ? 20:01:21 10° NW 20:07:07 48° NNE 20:10:02 26° E visible
8 Apr ? 21:46:53 10° WNW 21:50:41 38° W 21:50:41 38° W visible
9 Apr ? 19:28:55 10° NW 19:34:37 44° NNE 19:39:06 15° E visible
9 Apr ? 21:14:23 10° WNW 21:19:45 62° WSW 21:19:45 62° WSW visible
10 Apr ? 18:56:28 10° NW 19:02:06 41° NNE 19:07:36 10° E visible
10 Apr ? 20:41:55 10° WNW 20:47:51 75° SW 20:48:51 60° SSE visible
10 Apr ? 22:28:58 10° W 22:29:31 11° W 22:29:31 11° W visible
11 Apr ? 20:09:28 10° WNW 20:15:27 86° SW 20:18:00 35° SE visible
11 Apr ? 21:56:03 10° W 21:58:40 18° WSW 21:58:40 18° WSW visible
12 Apr ? 19:37:01 10° NW 19:43:02 84° NE 19:47:13 20° ESE visible
12 Apr ? 21:23:16 10° WNW 21:27:51 24° SW 21:27:53 24° SW visible
13 Apr ? 19:04:35 10° NW 19:10:35 74° NNE 19:16:25 10° ESE visible
13 Apr ? 20:50:35 10° WNW 20:55:33 28° SW 20:57:09 25° SSW visible
